Crystal River Weather Center

Moon Phase Calendar



Online Cameras

 


      

Current Conditions in Crystal River
10/24/2020 5:14:25 AM

71°F
Feels Like 76
Clear
Humidity
100%
Pressure
29.97"
Wind
6.8 mph (E)
Dew Point
71°F
UV Index
6/10 (High)
Visibility
6 mi

Hourly Forecast

Date & Time Sat, Oct 24
5:00 AM
Sat, Oct 24
6:00 AM
Sat, Oct 24
7:00 AM
Sat, Oct 24
8:00 AM
Sat, Oct 24
9:00 AM
Sat, Oct 24
10:00 AM
Sat, Oct 24
11:00 AM
Sat, Oct 24
12:00 PM
Sat, Oct 24
1:00 PM
Sat, Oct 24
2:00 PM
Sat, Oct 24
3:00 PM
Sat, Oct 24
4:00 PM
Sat, Oct 24
5:00 PM
Sat, Oct 24
6:00 PM
Sat, Oct 24
7:00 PM
Sat, Oct 24
8:00 PM
Sat, Oct 24
9:00 PM
Sat, Oct 24
10:00 PM
Sat, Oct 24
11:00 PM
Sun, Oct 25
12:00 AM
Sun, Oct 25
1:00 AM
Sun, Oct 25
2:00 AM
Sun, Oct 25
3:00 AM
Sun, Oct 25
4:00 AM
Sun, Oct 25
5:00 AM
Sun, Oct 25
6:00 AM
Sun, Oct 25
7:00 AM
Sun, Oct 25
8:00 AM
Sun, Oct 25
9:00 AM
Sun, Oct 25
10:00 AM
Sun, Oct 25
11:00 AM
Sun, Oct 25
12:00 PM
Sun, Oct 25
1:00 PM
Sun, Oct 25
2:00 PM
Sun, Oct 25
3:00 PM
Sun, Oct 25
4:00 PM
Sun, Oct 25
5:00 PM
Sun, Oct 25
6:00 PM
Sun, Oct 25
7:00 PM
Sun, Oct 25
8:00 PM
Sun, Oct 25
9:00 PM
Sun, Oct 25
10:00 PM
Sun, Oct 25
11:00 PM
Mon, Oct 26
12:00 AM
Mon, Oct 26
1:00 AM
Mon, Oct 26
2:00 AM
Mon, Oct 26
3:00 AM
Mon, Oct 26
4:00 AM
Condition
Clear

Clouds

Clouds

Clouds

Clouds

Clouds

Clouds

Clouds

Clouds

Clouds

Clouds

Clouds

Clouds

Clouds

Clouds

Clouds

Clouds

Clouds

Clouds

Clouds

Clouds

Clouds

Clear

Clear

Clear

Clear

Clear

Clear

Clear

Clear

Clear

Clear

Clear

Clear

Clear

Clear

Clear

Clouds

Clouds

Clear

Clear

Clear

Clear

Clear

Clear

Clear

Clear

Clear
Temperature 71°F72°F72°F72°F74°F76°F78°F80°F82°F83°F83°F83°F83°F82°F80°F79°F78°F77°F77°F75°F75°F74°F73°F73°F73°F72°F72°F72°F74°F77°F79°F81°F82°F82°F83°F83°F82°F81°F78°F78°F77°F77°F76°F76°F75°F75°F74°F74°F
Feels Like 76°F75°F75°F75°F77°F79°F81°F83°F85°F87°F87°F87°F87°F87°F83°F81°F79°F78°F77°F76°F75°F75°F75°F76°F76°F76°F75°F76°F78°F80°F83°F85°F88°F88°F87°F86°F85°F83°F82°F81°F81°F81°F81°F79°F79°F79°F79°F78°F
Cloudiness 1%35%50%62%86%80%58%48%38%33%27%24%32%35%36%30%17%28%33%24%19%16%0%0%0%0%0%0%0%0%0%0%0%0%0%2%7%11%12%10%5%3%2%1%1%1%0%0%
Visibility 6 mi6 mi6 mi6 mi6 mi6 mi6 mi6 mi6 mi6 mi6 mi6 mi6 mi6 mi6 mi6 mi6 mi6 mi6 mi6 mi6 mi6 mi6 mi6 mi6 mi6 mi6 mi6 mi6 mi6 mi6 mi6 mi6 mi6 mi6 mi6 mi6 mi6 mi6 mi6 mi6 mi6 mi6 mi6 mi6 mi6 mi6 mi6 mi
Precipitation 0%0%0%0%0%0%0%0%0%0%0%2%8%8%8%8%7%5%5%5%5%5%0%0%0%0%0%0%0%0%0%0%0%0%0%0%0%0%0%0%1%0%0%0%0%0%0%0%
Humidity 100%94%92%89%86%79%73%67%64%62%63%63%64%67%70%72%74%74%74%76%78%80%81%82%83%84%85%86%82%77%71%65%62%62%62%63%65%70%75%77%78%79%82%85%86%88%89%91%
Dew Point 71°F70°F70°F69°F69°F69°F69°F69°F69°F69°F69°F69°F69°F70°F69°F69°F69°F69°F68°F68°F67°F67°F67°F67°F67°F68°F68°F68°F69°F69°F69°F68°F68°F68°F68°F69°F69°F70°F70°F70°F70°F70°F70°F71°F71°F71°F71°F71°F
Pressure 29.97"29.97"29.97"29.97"30"30"30"29.97"29.97"29.94"29.91"29.88"29.88"29.85"29.88"29.88"29.91"29.91"29.94"29.91"29.91"29.91"29.88"29.88"29.88"29.91"29.91"29.91"29.94"29.94"29.94"29.94"29.91"29.91"29.88"29.85"29.85"29.85"29.88"29.91"29.91"29.94"29.94"29.94"29.94"29.94"29.94"29.94"
Wind Speed 6.8 mph7.8 mph8.2 mph7 mph7.8 mph7.6 mph8.2 mph7.3 mph6.3 mph4.9 mph4.3 mph4.3 mph4.7 mph5 mph7 mph8.8 mph10.3 mph9.9 mph10.6 mph10.7 mph10 mph8.8 mph8 mph6.3 mph5.4 mph5.6 mph5.8 mph5.2 mph5.6 mph6 mph5.2 mph4 mph1.1 mph2.4 mph5.3 mph6 mph7.3 mph8.3 mph7.9 mph8.4 mph7.4 mph6.2 mph6.5 mph7.9 mph8 mph7.3 mph6.8 mph6.7 mph
Wind
Direction
98°
E
94°
E
95°
E
95°
E
88°
E
92°
E
100°
E
109°
ESE
112°
ESE
111°
ESE
98°
E
81°
E
72°
ENE
75°
ENE
85°
E
95°
E
101°
E
106°
ESE
113°
ESE
125°
SE
131°
SE
134°
SE
131°
SE
125°
SE
109°
ESE
103°
ESE
105°
ESE
100°
E
95°
E
96°
E
97°
E
96°
E
59°
ENE
317°
NW
308°
NW
312°
NW
319°
NW
317°
NW
312°
NW
319°
NW
346°
NNW
32°
NNE
74°
ENE
93°
E
90°
E
85°
E
76°
ENE
66°
ENE

Daily Forecast

Date High Low Precip. Humidity
Today
Oct 24

Clouds
82 °F
71 °F
8%
64%
Sunday
Oct 25

Clear
82 °F
72 °F
5%
62%
Monday
Oct 26

Rain
85 °F
73 °F
32%
68%
Tuesday
Oct 27

Rain
84 °F
75 °F
40%
69%
Wednesday
Oct 28

Rain
84 °F
74 °F
100%
69%
Thursday
Oct 29

Rain
82 °F
76 °F
98%
73%
Friday
Oct 30

Rain
78 °F
68 °F
30%
74%
Saturday
Oct 31

Rain
73 °F
61 °F
23%
74%
Sunday
Nov 1

Clouds
78 °F
67 °F
17%
71%
Monday
Nov 2

Clouds
71 °F
62 °F
5%
70%
Tuesday
Nov 3

Clear
64 °F
52 °F
0%
59%
Wednesday
Nov 4

Clear
68 °F
51 °F
0%
48%
Thursday
Nov 5

Clear
70 °F
56 °F
0%
51%
Friday
Nov 6

Clear
74 °F
58 °F
0%
55%
Saturday
Nov 7

Clouds
78 °F
61 °F
4%
62%
Sunday
Nov 8

Rain
78 °F
68 °F
41%
72%


Temperature 8-14 Day Outlook



Precipitation 8-14 Day Outlook




Quick Links
Crystal River News
Crystal River Photos
Crystal River Videos




About Us
Contact Us
Site Map
Search Site
Advertise With Us
   
CrystalRiver.USGulf.info
THE CRYSTAL RIVER WEBSITE

Copyright 2020, Coastal Town
Privacy    |    Legal